N9BID Weather Reports


time (UTC)temp
F
wind
direction
speed
knots
gust
knots
rain 1hr
in
rain 24hr
in
rain mn
in
humidity
%
barometer
mb
20260503212342 68 253 2.6 2.6 0.00 0.00 0.00 45 995.1
20260503211839 66 161 4.3 5.2 0.00 0.00 0.00 45 995.2
20260503211336 69 286 5.2 8.7 0.00 0.00 0.00 44 995.5
20260503210831 69 240 6.1 8.7 0.00 0.00 0.00 46 995.5
20260503210329 69 236 3.5 7.8 0.00 0.00 0.00 44 995.6
20260503205824 68 273 3.5 7.8 0.00 0.00 0.00 46 995.5
20260503205320 69 287 3.5 5.2 0.00 0.00 0.00 47 995.5
20260503204817 68 279 2.6 11.3 0.00 0.00 0.00 49 995.6
20260503204315 68 209 1.7 5.2 0.00 0.00 0.00 46 995.5
20260503203812 68 259 3.5 6.1 0.00 0.00 0.00 46 995.4
20260503203309 68 273 3.5 6.1 0.00 0.00 0.00 47 995.7
20260503202806 68 307 5.2 7.8 0.00 0.00 0.00 48 995.7
20260503202304 67 275 6.1 8.7 0.00 0.00 0.00 47 995.9
20260503201801 68 282 3.5 5.2 0.00 0.00 0.00 48 996.0
20260503201258 67 251 6.1 8.7 0.00 0.00 0.00 51 996.0
20260503200756 67 271 4.3 11.3 0.00 0.00 0.00 49 996.1
20260503200251 67 224 6.1 7.8 0.00 0.00 0.00 49 995.9
20260503195749 66 197 4.3 7.0 0.00 0.00 0.00 49 996.2
20260503195246 67 275 3.5 7.0 0.00 0.00 0.00 47 996.4
20260503194743 67 244 5.2 12.2 0.00 0.00 0.00 50 996.4
20260503194239 66 234 5.2 7.8 0.00 0.00 0.00 49 996.2
20260503193735 66 243 5.2 6.1 0.00 0.00 0.00 50 996.2
20260503193231 67 281 3.5 5.2 0.00 0.00 0.00 45 996.3
20260503192727 66 216 3.5 7.0 0.00 0.00 0.00 51 996.4
20260503192222 66 228 1.7 5.2 0.00 0.00 0.00 49 996.5
20260503191719 67 128 5.2 6.1 0.00 0.00 0.00 50 996.7
20260503191216 66 311 4.3 7.0 0.00 0.00 0.00 50 996.4
20260503190713 66 267 5.2 7.8 0.00 0.00 0.00 49 996.2
20260503190210 66 297 2.6 8.7 0.00 0.00 0.00 51 996.5
20260503185708 66 231 7.8 8.7 0.00 0.00 0.00 50 996.4
20260503185202 66 274 3.5 11.3 0.00 0.00 0.00 51 996.3
20260503184657 66 325 3.5 6.1 0.00 0.00 0.00 52 996.6
20260503184154 67 297 1.7 6.1 0.00 0.00 0.00 49 996.6
20260503183650 65 204 0.0 7.8 0.00 0.00 0.00 51 996.8
20260503183148 65 322 3.5 7.0 0.00 0.00 0.00 51 996.6
20260503182646 65 230 4.3 7.0 0.00 0.00 0.00 50 996.7
20260503182144 65 199 1.7 5.2 0.00 0.00 0.00 53 996.7
20260503181640 65 240 4.3 7.8 0.00 0.00 0.00 51 996.9
20260503181137 66 262 4.3 5.2 0.00 0.00 0.00 54 996.9
20260503180634 65 242 3.5 7.0 0.00 0.00 0.00 54 997.0
20260503180132 65 248 2.6 6.1 0.00 0.00 0.00 52 997.0
20260503175629 65 242 5.2 7.8 0.00 0.00 0.00 49 996.8
20260503175126 65 255 3.5 7.0 0.00 0.00 0.00 53 996.9
20260503174622 65 276 4.3 6.1 0.00 0.00 0.00 53 997.3
20260503174120 64 145 3.5 7.0 0.00 0.00 0.00 50 996.9
20260503173615 65 259 3.5 5.2 0.00 0.00 0.00 55 997.0
20260503173111 64 250 1.7 6.1 0.00 0.00 0.00 49 997.2
20260503172608 64 173 3.5 7.0 0.00 0.00 0.00 49 997.0
20260503172106 64 287 4.3 7.8 0.00 0.00 0.00 52 997.2
20260503171602 64 226 1.7 9.6 0.00 0.00 0.00 51 997.2
20260503171100 64 263 4.3 8.7 0.00 0.00 0.00 53 997.3
20260503170556 63 218 3.5 7.0 0.00 0.00 0.00 51 997.3
20260503150948 58 246 8.7 11.3 0.00 0.00 0.00 58 998.2
20260503150445 58 239 5.2 11.3 0.00 0.00 0.00 61 998.3
20260503131338 52 219 2.6 5.2 0.00 0.00 0.00 67 998.9
20260503130835 52 196 5.2 7.8 0.00 0.00 0.00 65 998.6
20260503130333 52 188 6.1 7.8 0.00 0.00 0.00 66 998.8
20260503110727 47 227 3.5 6.1 0.00 0.00 0.00 69 999.3
20260503110224 47 210 1.7 6.1 0.00 0.00 0.00 70 999.5
20260503100149 46 175 0.0 0.0 0.00 0.00 0.00 75 999.5
20260503090109 47 160 0.0 0.0 0.00 0.00 0.00 75 1000.2
20260503081544 48 185 0.9 1.7 0.00 0.00 0.00 73 1000.8
20260503081042 49 188 0.9 0.9 0.00 0.00 0.00 74 1000.9
20260503080538 49 193 0.9 1.7 0.00 0.00 0.00 73 1001.1
20260503072512 51 216 3.5 5.2 0.00 0.00 0.00 64 1001.0
20260503072009 51 218 3.5 6.1 0.00 0.00 0.00 66 1001.3
20260503071506 50 220 2.6 5.2 0.00 0.00 0.00 67 1001.4
20260503071002 51 235 2.6 5.2 0.00 0.00 0.00 66 1001.6
20260503070459 51 236 3.5 6.1 0.00 0.00 0.00 64 1001.6
20260503054923 51 231 4.3 5.2 0.00 0.00 0.00 59 1001.9
20260503054419 51 233 3.5 5.2 0.00 0.00 0.00 60 1001.9
20260503053917 51 207 3.5 5.2 0.00 0.00 0.00 60 1001.8
20260503053415 51 202 3.5 6.1 0.00 0.00 0.00 60 1001.7
20260503052911 51 219 2.6 5.2 0.00 0.00 0.00 60 1002.0
20260503052408 51 245 5.2 7.0 0.00 0.00 0.00 60 1002.0
20260503051904 51 221 3.5 7.8 0.00 0.00 0.00 60 1002.0
20260503051400 50 222 3.5 6.1 0.00 0.00 0.00 61 1002.1
20260503050858 51 239 3.5 7.0 0.00 0.00 0.00 62 1002.1
20260503050354 50 223 5.2 7.8 0.00 0.00 0.00 62 1002.3
20260503045851 50 210 2.6 6.1 0.00 0.00 0.00 62 1002.3
20260503045349 49 204 2.6 3.5 0.00 0.00 0.00 63 1002.2
20260503044845 48 213 0.9 1.7 0.00 0.00 0.00 65 1002.3
20260503044342 47 192 0.9 0.9 0.00 0.00 0.00 67 1002.3
20260503043839 48 177 0.0 0.9 0.00 0.00 0.00 65 1002.5
20260503043336 48 182 0.9 0.9 0.00 0.00 0.00 65 1002.6
20260503042832 47 197 0.9 0.9 0.00 0.00 0.00 66 1002.5
20260503042329 48 177 0.0 0.9 0.00 0.00 0.00 66 1002.5
20260503041825 48 176 0.0 0.9 0.00 0.00 0.00 66 1002.6
20260503041323 48 175 0.9 0.9 0.00 0.00 0.00 64 1002.6
20260503040820 48 171 0.0 0.0 0.00 0.00 0.00 64 1002.5
20260503040318 48 179 0.0 0.9 0.00 0.00 0.00 64 1002.9
20260503035815 48 184 0.9 0.9 0.00 0.00 0.00 64 1002.6
20260503035312 49 187 0.9 0.9 0.00 0.00 0.00 65 1002.7
20260503034809 49 180 0.9 0.9 0.00 0.00 0.00 65 1003.0
20260503034306 49 175 0.0 0.9 0.00 0.00 0.00 64 1003.1
20260503033803 48 187 1.7 1.7 0.00 0.00 0.00 64 1003.2
20260503033300 48 181 0.9 0.9 0.00 0.00 0.00 66 1003.1
20260503032758 49 177 0.9 1.7 0.00 0.00 0.00 66 1003.2
20260503032257 48 182 0.0 0.9 0.00 0.00 0.00 66 1003.1
20260503031754 49 181 0.0 0.9 0.00 0.00 0.00 67 1003.2
20260503031252 49 181 0.9 1.7 0.00 0.00 0.00 66 1003.4
20260503030748 50 184 0.9 1.7 0.00 0.00 0.00 64 1003.3
20260503030245 50 185 0.9 0.9 0.00 0.00 0.00 64 1003.6
20260503025741 50 175 0.0 1.7 0.00 0.00 0.00 65 1003.6
20260503025239 50 176 0.0 0.9 0.00 0.00 0.00 64 1003.6
20260503024736 51 181 0.9 0.9 0.00 0.00 0.00 62 1003.6
20260503024233 52 171 0.9 1.7 0.00 0.00 0.00 59 1003.6
20260503023729 52 193 0.9 1.7 0.00 0.00 0.00 59 1003.6
20260503023226 52 209 1.7 1.7 0.00 0.00 0.00 58 1003.8
20260503022722 52 205 1.7 1.7 0.00 0.00 0.00 59 1003.9
20260503022217 52 193 0.9 2.6 0.00 0.00 0.00 59 1003.8
20260503021714 51 205 1.7 1.7 0.00 0.00 0.00 60 1003.9
20260503021210 51 190 0.9 2.6 0.00 0.00 0.00 60 1004.0
20260503020708 51 176 0.0 0.9 0.00 0.00 0.00 62 1004.1
20260503020205 51 188 0.0 0.9 0.00 0.00 0.00 61 1004.0
20260503015702 51 181 0.9 0.9 0.00 0.00 0.00 63 1004.0
20260503015159 51 180 0.0 0.9 0.00 0.00 0.00 61 1003.8
20260503014654 51 181 0.0 0.9 0.00 0.00 0.00 58 1004.1
20260503014153 52 181 0.9 0.9 0.00 0.00 0.00 58 1004.0
20260503013649 51 201 0.9 0.9 0.00 0.00 0.00 59 1003.9
20260503013147 50 195 0.9 1.7 0.00 0.00 0.00 62 1003.7
20260503012644 51 177 0.9 0.9 0.00 0.00 0.00 60 1004.0
20260503012141 52 180 0.0 0.9 0.00 0.00 0.00 59 1003.9
20260503011637 52 188 0.9 0.9 0.00 0.00 0.00 57 1003.9
20260503011135 53 177 0.9 1.7 0.00 0.00 0.00 55 1004.0
20260503010631 53 198 1.7 2.6 0.00 0.00 0.00 55 1004.1
20260503010128 53 188 0.9 1.7 0.00 0.00 0.00 56 1004.1
20260503005625 53 205 1.7 1.7 0.00 0.00 0.00 54 1004.2
20260503005122 53 202 0.9 1.7 0.00 0.00 0.00 55 1004.4
20260503004618 54 210 1.7 1.7 0.00 0.00 0.00 53 1004.3
20260503004117 54 185 0.9 1.7 0.00 0.00 0.00 52 1004.3
20260503003614 54 221 0.9 1.7 0.00 0.00 0.00 51 1004.3
20260503003111 54 224 3.5 3.5 0.00 0.00 0.00 51 1004.4
20260503002608 55 244 0.9 1.7 0.00 0.00 0.00 50 1004.4
20260503002104 55 179 0.9 3.5 0.00 0.00 0.00 48 1004.4
20260503001600 55 245 2.6 5.2 0.00 0.00 0.00 48 1004.4
20260503001058 56 237 2.6 6.1 0.00 0.00 0.00 48 1004.3
20260503000555 56 264 2.6 3.5 0.00 0.00 0.00 47 1004.5
20260503000052 56 198 0.9 2.6 0.00 0.00 0.00 47 1004.4
20260502235548 57 267 2.6 5.2 0.00 0.00 0.00 45 1004.1
20260502235047 57 201 0.9 5.2 0.00 0.00 0.00 46 1004.5
20260502234542 57 269 3.5 5.2 0.00 0.00 0.00 45 1004.8
20260502234040 57 279 3.5 6.1 0.00 0.00 0.00 43 1004.5
20260502233540 58 240 1.7 3.5 0.00 0.00 0.00 44 1004.6
20260502233038 57 262 1.7 3.5 0.00 0.00 0.00 47 1004.5
20260502232534 57 280 1.7 2.6 0.00 0.00 0.00 48 1004.5
20260502232031 57 237 3.5 6.1 0.00 0.00 0.00 45 1004.7
20260502231528 57 223 1.7 6.1 0.00 0.00 0.00 44 1004.5
20260502231026 57 326 3.5 7.0 0.00 0.00 0.00 44 1004.7
20260502230524 57 276 5.2 7.0 0.00 0.00 0.00 42 1004.9
20260502230023 58 250 3.5 5.2 0.00 0.00 0.00 42 1004.6
20260502225522 57 252 1.7 6.1 0.00 0.00 0.00 43 1004.7
20260502225020 57 249 5.2 7.8 0.00 0.00 0.00 43 1004.7
20260502224516 58 245 2.6 7.8 0.00 0.00 0.00 44 1004.6
20260502224014 59 308 2.6 7.8 0.00 0.00 0.00 44 1004.6
20260502223511 59 252 5.2 9.6 0.00 0.00 0.00 39 1004.7
20260502223009 59 187 3.5 6.1 0.00 0.00 0.00 38 1005.2
20260502222506 59 265 3.5 5.2 0.00 0.00 0.00 41 1004.8
20260502222002 59 300 3.5 5.2 0.00 0.00 0.00 39 1005.0
20260502221458 59 278 3.5 6.1 0.00 0.00 0.00 40 1005.2
20260502220955 59 231 5.2 8.7 0.00 0.00 0.00 40 1004.9
20260502220451 59 273 3.5 6.1 0.00 0.00 0.00 40 1005.0
20260502215948 60 256 3.5 5.2 0.00 0.00 0.00 39 1005.1
20260502215445 59 314 4.3 6.1 0.00 0.00 0.00 39 1005.2
20260502214942 59 305 3.5 7.0 0.00 0.00 0.00 40 1005.3
20260502214439 59 231 3.5 7.8 0.00 0.00 0.00 42 1005.2
20260502213936 59 289 3.5 7.8 0.00 0.00 0.00 41 1005.1
20260502213433 58 214 7.0 8.7 0.00 0.00 0.00 37 1005.2
20260502212931 59 246 7.0 8.7 0.00 0.00 0.00 37 1005.4